Other Surface Observations
Issued by NWS Upton, NY

Current Version | Previous Version | Text Only | Print | Product List | Glossary Off
Versions: 1 2 3 4 5 6 7 8 9 10 11 12 13 14 15 16 17 18 19 20 21 22 23 24 25 26 27 28 29 30 31 32 33 34 35 36 37 38 39 40 41 42 43 44 45 46 47 48 49 50
000 SXUS51 KOKX 280257 OSOOKX NEW YORK CITY METROPOLITAN AREA WEATHER ROUNDUP National Weather Service New York NY 1100 PM EDT MON JUN 27 2016 CITY SKY/WX TMP DP RH WIND PRES REMARKS Central Park LGT RAIN 70 68 93 VRB3 30.04S FOG LaGuardia APRT LGT RAIN 72 69 90 S8 30.00F Kennedy INTL LGT RAIN 72 69 90 S16 30.02F Newark Liberty HVY RAIN 72 69 90 S8 30.01S FOG Teteboro APRT RAIN 71 68 90 S6 30.00S FOG BNX BOT. GARD. N/A 70 68 94 S2 30.03R Wall St Helipt CLOUDY 72 70 94 SW5 30.02S >>>>>>>>>>>>>>>>>>>>>>>>>>>>>>>>> KEY <<<<<<<<<<<<<<<<<<<<<<<<<<<<<<< > SKY/WX - SKY CONDITION/ : R : WCI - WIND CHILL INDEX < > PRESENT WEATHER : E : VSB - VISIBILITY IN MILES < > TMP - TEMPERATURE IN DEG F : M : HX - HEAT INDEX < > DP - DEW POINT TEMPERATURE : A : TC - TEMPERATURE IN < > RH - RELATIVE HUMIDITY : R : CELSIUS < > WIND - DIRECTION/SPEED (MPH) : K : VRB - VARIABLE WIND DIR < > PRES - PRESSURE (IN HG) : S : < >>>>>>>>>>>>>>>>>>>>>>>>>>>>>>>>> KEY <<<<<<<<<<<<<<<<<<<<<<<<<<<<<<<

USA.gov is the U.S. government's official web portal to all federal, state and local government web resources and services.